[[{"header":{"parameterUnit":"m.s-1","parameterCategory":1,"la1":30.2991,"la2":30.254,"lo1":-89.0895,"lo2":-89.0444,"dy":0.0017,"dx":0.0017,"nx":28,"ny":28,"refTime":"2024-04-15T09:00:00:Z","depth":0,"parameterNumber":2,"parameterNumberName":"U-component_of_WINDS"},"data":[0,0,0,0,0,0,0,0,0,0,0,0,0,0,0,0,0,0,0,0,0,0,0,0,0,0,0,0,0,0,0,0,0,0,0,0,0,0,0,0,0,0,0,0,0,0,0,0,0,0,0,0,0,0,0,0,0,0,-2.3125,-2.3125,0,-2.3111,-2.311,-2.311,-2.3065,-2.3064,-2.3063,-2.3062,-2.3047,-2.3047,-2.3048,0,0,0,0,0,0,0,0,0,0,0,0,0,-2.3117,-2.3117,-2.3125,-2.3125,-2.3125,-2.3111,-2.311,-2.311,-2.3065,-2.3064,-2.3063,-2.3061,-2.3047,-2.3047,-2.3048,0,0,0,0,0,0,0,0,0,0,0,0,0,-2.3113,-2.3117,-2.3125,-2.3101,-2.3098,-2.3111,-2.311,-2.311,-2.3065,-2.3064,-2.3062,-2.3061,-2.3046,-2.3047,-2.3048,-2.3083,0,0,-2.305,-2.3051,0,0,0,0,0,0,0,0,-2.3113,-2.3113,-2.3105,-2.3103,-2.31,-2.3088,-2.3102,-2.3101,-2.3066,-2.3078,-2.3062,-2.306,-2.3062,-2.3061,-2.3062,-2.3082,-2.3082,-2.3051,-2.3051,-2.3051,-2.3052,0,0,0,0,0,0,0,-2.3114,-2.3114,-2.312,-2.3105,-2.3102,-2.3091,-2.3089,-2.3101,-2.3078,-2.3077,-2.3073,-2.3072,-2.306,-2.3061,-2.3061,-2.3081,-2.305,-2.3051,-2.3052,-2.3052,-2.3132,-2.3133,0,0,0,0,0,0,-2.3117,-2.3114,-2.312,-2.3119,-2.3103,-2.3093,-2.309,-2.3093,-2.3078,-2.3074,-2.3074,-2.307,-2.306,-2.306,-2.306,-2.31,-2.3051,-2.3052,-2.3053,-2.313,-2.3132,-2.3134,0,0,0,0,0,0,-2.3117,-2.3118,-2.3121,-2.3116,-2.3115,-2.3094,-2.3098,-2.3094,-2.3094,-2.3076,-2.3072,-2.3078,-2.3059,-2.3059,-2.3078,-2.3099,-2.3052,-2.3053,-2.3128,-2.3131,-2.3133,-2.3181,0,0,0,0,0,0,-2.3117,-2.3118,-2.3131,-2.3116,-2.3116,-2.3138,-2.31,-2.3095,-2.3096,-2.3091,-2.3079,-2.3076,-2.3058,-2.3077,-2.3079,-2.31,-2.3054,-2.3126,-2.3129,-2.3132,-2.3178,-2.3185,-2.3191,0,0,0,0,0,-2.3117,-2.3145,-2.3132,-2.3133,-2.3131,-2.3139,-2.3139,-2.3118,-2.3098,-2.3111,-2.3099,-2.3076,-2.3097,-2.3079,-2.3081,-2.3102,-2.3124,-2.3128,-2.3132,-2.3174,-2.3184,-2.3191,0,0,0,0,0,0,-2.3162,-2.3142,-2.3127,-2.3151,-2.3147,-2.3132,-2.3146,-2.3128,-2.3129,-2.3125,-2.3099,-2.3097,-2.312,-2.3113,-2.3093,-2.3136,-2.3107,-2.3111,-2.3139,-2.3148,-2.3154,-2.3155,-2.3054,0,0,0,0,0,-2.3174,-2.3182,-2.3165,-2.3188,-2.3187,-2.3168,-2.317,-2.3155,-2.315,-2.3148,-2.3137,-2.3133,-2.3139,-2.3143,-2.3148,-2.3177,-2.3174,-2.3193,-2.32,-2.3206,-2.3209,-2.3225,-2.3234,-2.3146,-2.3146,-2.3146,0,0,-2.32,-2.3191,-2.3197,-2.3197,-2.3192,-2.3202,-2.3166,-2.3177,-2.3184,-2.3149,-2.3166,-2.3159,-2.3153,-2.3178,-2.3188,-2.3173,-2.3233,-2.3211,-2.3215,-2.3215,-2.323,-2.3238,-2.3246,-2.3148,-2.3148,-2.3147,0,0,-2.3252,-2.3246,-2.3264,-2.3261,-2.3254,-2.3241,-2.3246,-2.3234,-2.3228,-2.3245,-2.3219,-2.3228,-2.3238,-2.3235,-2.3235,-2.3289,-2.3269,-2.3292,-2.3327,-2.3343,-2.335,-2.3356,-2.3375,-2.3383,-2.3296,-2.3296,-2.3296,0,-2.3285,-2.3298,-2.3276,-2.329,-2.3291,-2.3261,-2.328,-2.3277,-2.3273,-2.3274,-2.3258,-2.3271,-2.3265,-2.3289,-2.3303,-2.3304,-2.3309,-2.3292,-2.3351,-2.3357,-2.3362,-2.338,-2.3387,-2.3299,-2.3298,-2.3298,-2.3298,0,-2.3339,-2.3349,-2.3365,-2.3361,-2.3364,-2.3381,-2.3362,-2.3368,-2.3354,-2.3343,-2.3362,-2.3354,-2.3356,-2.3362,-2.3347,-2.3384,-2.3375,-2.3355,-2.3325,-2.3373,-2.339,-2.3397,-2.3303,-2.3302,-2.3301,-2.33,0,0,-2.3415,-2.3402,-2.3408,-2.3407,-2.3399,-2.3406,-2.3422,-2.3425,-2.3431,-2.343,-2.3442,-2.3453,-2.3436,-2.3436,-2.3421,-2.3435,-2.3479,-2.3414,-2.3413,-2.3426,-2.3521,-2.3534,-2.3543,-2.3467,-2.3468,-2.3469,-2.3521,0,-2.3464,-2.3489,-2.3472,-2.35,-2.351,-2.3483,-2.3497,-2.3494,-2.3486,-2.3493,-2.3483,-2.3491,-2.3468,-2.3468,-2.3481,-2.3471,-2.3498,-2.3468,-2.3478,-2.3479,-2.3479,-2.3551,-2.3566,-2.3615,-2.3527,-2.3528,-2.3529,0,-2.3523,-2.3525,-2.3555,-2.3547,-2.355,-2.3562,-2.3565,-2.3572,-2.3569,-2.3562,-2.3564,-2.3546,-2.3562,-2.3534,-2.3556,-2.3536,-2.354,-2.3537,-2.3538,-2.3537,-2.3506,-2.3551,-2.363,-2.3637,-2.3539,-2.3538,-2.3538,0,-2.3576,-2.3586,-2.3605,-2.3605,-2.3596,-2.3606,-2.3602,-2.3598,-2.3602,-2.3604,-2.3606,-2.3611,-2.3613,-2.3618,-2.3602,-2.3584,-2.3627,-2.3598,-2.3621,-2.3622,-2.363,-2.3629,-2.3709,-2.3635,-2.3635,-2.3635,-2.3634,0,-2.3631,-2.365,-2.3629,-2.364,-2.3662,-2.3642,-2.3664,-2.3658,-2.3655,-2.3666,-2.3644,-2.3654,-2.3634,-2.3643,-2.3632,-2.3652,-2.3653,-2.3648,-2.3645,-2.3649,-2.365,-2.365,-2.3646,-2.3637,-2.3636,-2.3636,-2.3635,0,-2.3692,-2.3678,-2.3697,-2.3688,-2.3686,-2.3702,-2.3694,-2.3705,-2.3697,-2.3711,-2.3713,-2.3699,-2.3709,-2.3695,-2.3703,-2.3695,-2.3723,-2.3715,-2.3724,-2.3721,-2.3745,-2.3743,-2.3827,-2.3837,-2.3758,-2.3758,-2.3759,0,-2.3727,-2.3741,-2.3734,-2.3739,-2.3738,-2.3747,-2.3751,-2.3734,-2.3739,-2.3738,-2.3749,-2.3758,-2.3763,-2.378,-2.3771,-2.3777,-2.3769,-2.3798,-2.3769,-2.3774,-2.3768,-2.3767,-2.3768,-2.3803,-2.3804,-2.3805,-2.3805,0,-2.3791,-2.3784,-2.379,-2.3795,-2.3801,-2.3804,-2.3805,-2.3811,-2.3793,-2.3801,-2.381,-2.3815,-2.3824,-2.3832,-2.3837,-2.3834,-2.3817,-2.3815,-2.3821,-2.3825,-2.3829,-2.3826,-2.3738,-2.3812,-2.3812,-2.3811,-2.3811,-2.381,-2.3839,-2.3851,-2.3848,-2.3857,-2.3856,-2.3859,-2.3869,-2.3862,-2.387,-2.3876,-2.3866,-2.3878,-2.3877,-2.3882,-2.3882,-2.3892,-2.3879,-2.3888,-2.3889,-2.3891,-2.3895,-2.3829,-2.3893,-2.3893,-2.3893,-2.3892,-2.3892,0,-2.3902,-2.3899,-2.3907,-2.391,-2.3917,-2.3902,-2.3903,-2.391,-2.3921,-2.3922,-2.3928,-2.394,-2.3949,-2.3942,-2.395,-2.3959,-2.3952,-2.3962,-2.396,-2.396,-2.3906,-2.39,-2.3968,-2.3968,-2.3968,-2.3968,-2.3968,-2.3968,-2.3935,-2.3954,-2.3947,-2.3967,-2.3964,-2.3977,-2.3979,-2.3981,-2.3982,-2.3996,-2.4004,-2.3999,-2.3997,-2.4005,-2.4013,-2.401,-2.4014,-2.4027,-2.4022,-2.3971,-2.3964,-2.3956,-2.395,-2.4028,-2.4028,-2.4074,-2.4075,-2.4075]},{"header":{"parameterUnit":"m.s-1","parameterCategory":1,"la1":30.2991,"la2":30.254,"lo1":-89.0895,"lo2":-89.0444,"dy":0.0017,"dx":0.0017,"nx":28,"ny":28,"refTime":"2024-04-15T09:00:00:Z","depth":0,"parameterNumber":3,"parameterNumberName":"V-component_of_WINDS"},"data":[0,0,0,0,0,0,0,0,0,0,0,0,0,0,0,0,0,0,0,0,0,0,0,0,0,0,0,0,0,0,0,0,0,0,0,0,0,0,0,0,0,0,0,0,0,0,0,0,0,0,0,0,0,0,0,0,0,0,3.0861,3.0861,0,3.0826,3.0826,3.0826,3.0843,3.0844,3.0844,3.0845,3.0808,3.0806,3.0805,0,0,0,0,0,0,0,0,0,0,0,0,0,3.0942,3.094,3.0861,3.0861,3.086,3.0826,3.0826,3.0825,3.0842,3.0844,3.0845,3.0846,3.0809,3.0807,3.0805,0,0,0,0,0,0,0,0,0,0,0,0,0,3.0907,3.094,3.0861,3.0865,3.0865,3.0827,3.0826,3.0825,3.0842,3.0844,3.0845,3.0846,3.081,3.0807,3.0804,3.076,0,0,3.0796,3.0795,0,0,0,0,0,0,0,0,3.0909,3.0904,3.0864,3.0864,3.0864,3.084,3.0841,3.0803,3.0842,3.0851,3.0845,3.0847,3.0818,3.0814,3.0805,3.0759,3.0757,3.0796,3.0794,3.0793,3.0792,0,0,0,0,0,0,0,3.0911,3.0905,3.0847,3.0864,3.0864,3.0868,3.0864,3.0834,3.0827,3.085,3.0851,3.0847,3.0818,3.0807,3.0804,3.0756,3.0796,3.0793,3.0792,3.0791,3.0674,3.0673,0,0,0,0,0,0,3.0914,3.0907,3.0848,3.0846,3.089,3.0865,3.0861,3.0846,3.0827,3.0826,3.0846,3.0848,3.0811,3.0807,3.0803,3.0751,3.0793,3.079,3.0789,3.0676,3.0674,3.0673,0,0,0,0,0,0,3.0915,3.0908,3.085,3.0877,3.087,3.0863,3.0846,3.0845,3.0835,3.0824,3.0823,3.0836,3.0812,3.0807,3.0771,3.075,3.0789,3.0787,3.0678,3.0675,3.0673,3.0647,0,0,0,0,0,0,3.0917,3.0909,3.0892,3.0877,3.0868,3.0818,3.0844,3.0843,3.083,3.0832,3.0815,3.0813,3.0813,3.0775,3.0769,3.0747,3.0784,3.0679,3.0677,3.0674,3.065,3.0644,3.064,0,0,0,0,0,3.092,3.0885,3.0891,3.0883,3.0847,3.0817,3.0813,3.0813,3.0828,3.0811,3.0805,3.0814,3.0754,3.0772,3.0764,3.0742,3.0681,3.0677,3.0674,3.0652,3.0645,3.064,0,0,0,0,0,0,3.0896,3.0883,3.0889,3.0848,3.0834,3.082,3.0799,3.0806,3.0786,3.0789,3.0791,3.0787,3.075,3.0742,3.0762,3.0699,3.072,3.0715,3.0705,3.0699,3.0694,3.0696,3.0782,0,0,0,0,0,3.0886,3.0864,3.0853,3.0817,3.081,3.0806,3.0793,3.0795,3.078,3.0774,3.0765,3.075,3.0728,3.0713,3.0692,3.0649,3.0646,3.063,3.0625,3.0621,3.0616,3.0595,3.0588,3.0662,3.0662,3.0662,0,0,3.0865,3.0855,3.084,3.0812,3.0802,3.0778,3.08,3.0774,3.0757,3.0769,3.0736,3.0729,3.0712,3.0674,3.0656,3.0666,3.0596,3.0617,3.0614,3.0611,3.0591,3.0584,3.0578,3.066,3.066,3.066,0,0,3.0815,3.0805,3.0775,3.0764,3.0748,3.0746,3.0739,3.0725,3.0721,3.0687,3.0697,3.0677,3.0638,3.0627,3.0616,3.0564,3.0571,3.0557,3.053,3.0509,3.0503,3.0498,3.048,3.0474,3.0552,3.0552,3.0552,0,3.079,3.0755,3.0758,3.0732,3.072,3.0732,3.0702,3.0691,3.0669,3.066,3.0672,3.0626,3.0615,3.0575,3.0562,3.0553,3.0545,3.0558,3.0504,3.0498,3.0494,3.0477,3.047,3.0551,3.0551,3.0551,3.0551,0,3.0727,3.0703,3.068,3.066,3.0646,3.0617,3.0616,3.0601,3.0605,3.0602,3.0568,3.0557,3.0534,3.0525,3.0528,3.0485,3.0492,3.0504,3.0524,3.0485,3.0469,3.0463,3.0548,3.0549,3.0549,3.055,0,0,3.0658,3.0642,3.0634,3.0625,3.061,3.0591,3.0564,3.0543,3.0531,3.0516,3.0494,3.0462,3.0473,3.0461,3.0463,3.0444,3.0405,3.0458,3.0458,3.0449,3.0359,3.0351,3.0343,3.0411,3.041,3.0409,3.0361,0,3.0607,3.0561,3.0564,3.052,3.0498,3.0511,3.0487,3.0476,3.0472,3.0454,3.045,3.0428,3.0444,3.0437,3.0419,3.0414,3.0387,3.0417,3.0391,3.039,3.0394,3.0335,3.0325,3.028,3.0355,3.0353,3.0353,0,3.0541,3.0525,3.048,3.0469,3.0461,3.0439,3.0422,3.0404,3.0391,3.039,3.0377,3.0383,3.0357,3.0378,3.0342,3.0363,3.0352,3.0349,3.0347,3.0344,3.0369,3.0331,3.0266,3.0259,3.0343,3.0344,3.0344,0,3.0497,3.0464,3.0433,3.0426,3.0412,3.0398,3.0391,3.038,3.0368,3.0353,3.0345,3.0326,3.0316,3.0301,3.0302,3.0318,3.0266,3.0288,3.0265,3.0265,3.0253,3.0254,3.0186,3.0246,3.0246,3.0246,3.0246,0,3.044,3.0411,3.0413,3.0394,3.0364,3.0368,3.0337,3.0332,3.0323,3.0303,3.0313,3.0294,3.0296,3.0278,3.0278,3.0249,3.0244,3.0243,3.0243,3.0242,3.0242,3.0235,3.0238,3.0244,3.0245,3.0245,3.0245,0,3.0385,3.0385,3.0352,3.0343,3.034,3.0318,3.031,3.0293,3.0291,3.0266,3.0261,3.0258,3.0237,3.0237,3.0212,3.0213,3.0177,3.0181,3.0182,3.0183,3.016,3.0162,3.0085,3.0076,3.0142,3.0141,3.014,0,3.0348,3.0327,3.0316,3.0305,3.0298,3.0278,3.0267,3.027,3.0258,3.0243,3.0227,3.0208,3.0192,3.0158,3.0154,3.0136,3.0139,3.0114,3.0137,3.0137,3.014,3.0141,3.014,3.0109,3.0108,3.0108,3.0107,0,3.0283,3.0285,3.0268,3.0252,3.0238,3.0225,3.0213,3.0203,3.0205,3.0191,3.017,3.0158,3.0134,3.0115,3.0098,3.0092,3.01,3.01,3.0094,3.0093,3.0094,3.0094,3.017,3.0102,3.0102,3.0103,3.0103,3.0103,3.0237,3.0219,3.021,3.0191,3.0183,3.0172,3.0156,3.0153,3.0136,3.0117,3.0121,3.0098,3.0088,3.0066,3.0058,3.0041,3.005,3.0041,3.0038,3.0036,3.0034,3.0097,3.0038,3.0038,3.0038,3.0038,3.0038,0,3.0173,3.0169,3.0151,3.0135,3.0121,3.0131,3.0119,3.0106,3.0086,3.0076,3.0062,3.0039,3.002,3.0016,2.9998,2.9985,2.9989,2.9981,2.9982,2.998,3.0027,3.0034,2.9978,2.9978,2.9978,2.9978,2.9978,2.9978,3.0139,3.011,3.0111,3.0079,3.0074,3.0053,3.0045,3.0036,3.0028,3.0002,2.9988,2.9985,2.9977,2.996,2.9944,2.9943,2.9937,2.9927,2.9928,2.9971,2.9977,2.9983,2.999,2.9925,2.9925,2.9883,2.9883,2.9882]}]]